| time (UTC) | temp C | wind direction | speed KPH | gust KPH | rain 1hr cm | rain 24hr cm | rain mn cm | humidity % | barometer mb |
| 20260906064603 | 19 | 14 | 0.0 | 6.4 | 0.00 | 0.00 | 0.00 | 88 | 1020.0 |
| 20260906063101 | 19 | 0 | 0.0 | 3.2 | 0.00 | 0.00 | 0.00 | 87 | 1020.2 |
| 20260906061610 | 19 | 0 | 0.0 | 6.4 | 0.00 | 0.00 | 0.00 | 87 | 1020.0 |
| 20260906054606 | 20 | 52 | 0.0 | 6.4 | 0.00 | 0.00 | 0.00 | 89 | 1019.9 |
| 20260906053102 | 20 | 21 | 1.6 | 9.7 | 0.00 | 0.00 | 0.00 | 89 | 1019.8 |
| 20260906051605 | 20 | 14 | 0.0 | 8.0 | 0.00 | 0.00 | 0.00 | 90 | 1019.8 |
| 20260906050058 | 21 | 11 | 0.0 | 8.0 | 0.00 | 0.00 | 0.00 | 90 | 1019.6 |
| 20260906044601 | 21 | 29 | 3.2 | 11.3 | 0.00 | 0.00 | 0.00 | 90 | 1019.5 |
| 20260906043101 | 21 | 36 | 1.6 | 9.7 | 0.00 | 0.00 | 0.00 | 90 | 1019.3 |
| 20260906041559 | 21 | 20 | 1.6 | 9.7 | 0.00 | 0.00 | 0.00 | 90 | 1019.2 |
| 20260906040056 | 22 | 48 | 3.2 | 9.7 | 0.00 | 0.00 | 0.00 | 89 | 1019.3 |
| 20260906034602 | 22 | 0 | 4.8 | 12.9 | 0.00 | 0.00 | 0.00 | 89 | 1019.4 |
| 20260906033102 | 22 | 352 | 3.2 | 11.3 | 0.00 | 0.00 | 0.00 | 89 | 1019.2 |
| 20260906031603 | 22 | 18 | 1.6 | 17.7 | 0.00 | 0.00 | 0.00 | 89 | 1019.1 |
| 20260906030105 | 22 | 130 | 1.6 | 16.1 | 0.00 | 0.00 | 0.00 | 89 | 1019.1 |
| 20260906024603 | 23 | 0 | 1.6 | 9.7 | 0.00 | 0.00 | 0.00 | 90 | 1019.1 |
| 20260906023100 | 23 | 21 | 3.2 | 14.5 | 0.00 | 0.00 | 0.00 | 89 | 1018.8 |
| 20260906021557 | 23 | 13 | 3.2 | 12.9 | 0.00 | 0.00 | 0.00 | 89 | 1018.7 |
| 20260906020111 | 23 | 350 | 1.6 | 14.5 | 0.00 | 0.00 | 0.00 | 88 | 1018.5 |
| 20260906014602 | 23 | 337 | 3.2 | 17.7 | 0.00 | 0.00 | 0.00 | 88 | 1018.7 |
| 20260906013103 | 24 | 32 | 3.2 | 11.3 | 0.00 | 0.00 | 0.00 | 88 | 1018.3 |
| 20260906011600 | 24 | 96 | 1.6 | 12.9 | 0.00 | 0.00 | 0.00 | 87 | 1017.9 |
| 20260906010103 | 25 | 0 | 0.0 | 11.3 | 0.00 | 0.00 | 0.00 | 86 | 1017.5 |
| 20260906004558 | 25 | 0 | 1.6 | 12.9 | 0.00 | 0.00 | 0.00 | 87 | 1017.6 |
| 20260906003102 | 25 | 14 | 1.6 | 14.5 | 0.00 | 0.00 | 0.00 | 86 | 1017.8 |
| 20260906001600 | 26 | 336 | 3.2 | 12.9 | 0.00 | 0.00 | 0.00 | 86 | 1017.3 |
| 20260905234604 | 26 | 0 | 0.0 | 12.9 | 0.00 | 0.00 | 0.00 | 83 | 1017.1 |
| 20260905233100 | 27 | 0 | 1.6 | 6.4 | 0.00 | 0.00 | 0.00 | 82 | 1017.2 |
| 20260905231603 | 27 | 0 | 0.0 | 0.0 | 0.00 | 0.00 | 0.00 | 82 | 1017.2 |
| 20260905230100 | 27 | 0 | 0.0 | 6.4 | 0.00 | 0.00 | 0.00 | 81 | 1017.2 |
| 20260905224608 | 27 | 130 | 0.0 | 6.4 | 0.00 | 0.00 | 0.00 | 82 | 1017.2 |
| 20260905223103 | 27 | 17 | 3.2 | 11.3 | 0.00 | 0.00 | 0.00 | 81 | 1017.0 |
| 20260905221605 | 28 | 0 | 0.0 | 4.8 | 0.00 | 0.00 | 0.00 | 80 | 1017.0 |
| 20260905220108 | 28 | 336 | 0.0 | 14.5 | 0.00 | 0.00 | 0.00 | 80 | 1016.7 |
| 20260905214606 | 28 | 24 | 3.2 | 11.3 | 0.00 | 0.00 | 0.00 | 79 | 1016.5 |
| 20260905213100 | 28 | 66 | 3.2 | 16.1 | 0.00 | 0.00 | 0.00 | 77 | 1016.3 |
| 20260905211628 | 29 | 16 | 4.8 | 14.5 | 0.00 | 0.00 | 0.00 | 74 | 1016.2 |
| 20260905210122 | 30 | 5 | 4.8 | 12.9 | 0.00 | 0.00 | 0.00 | 71 | 1016.2 |
| 20260905204608 | 31 | 343 | 3.2 | 8.0 | 0.00 | 0.00 | 0.00 | 68 | 1016.4 |
| 20260905203119 | 31 | 26 | 1.6 | 12.9 | 0.00 | 0.00 | 0.00 | 66 | 1016.6 |
| 20260905201602 | 31 | 16 | 1.6 | 9.7 | 0.00 | 0.00 | 0.00 | 67 | 1016.8 |
| 20260905194606 | 32 | 339 | 1.6 | 6.4 | 0.00 | 0.20 | 0.00 | 65 | 1017.0 |
| 20260905193100 | 32 | 200 | 1.6 | 9.7 | 0.00 | 0.20 | 0.00 | 65 | 1017.2 |
| 20260905191602 | 32 | 0 | 1.6 | 9.7 | 0.00 | 0.20 | 0.00 | 66 | 1017.4 |
| 20260905190057 | 31 | 209 | 4.8 | 12.9 | 0.00 | 0.20 | 0.00 | 64 | 1017.5 |
| 20260905184608 | 31 | 96 | 3.2 | 12.9 | 0.00 | 0.20 | 0.00 | 64 | 1017.6 |
| 20260905183101 | 31 | 142 | 3.2 | 11.3 | 0.00 | 0.20 | 0.00 | 63 | 1017.8 |
| 20260905181610 | 31 | 254 | 1.6 | 12.9 | 0.00 | 0.20 | 0.00 | 65 | 1018.0 |
| 20260905180107 | 30 | 282 | 3.2 | 12.9 | 0.00 | 0.20 | 0.00 | 64 | 1018.2 |
| 20260905174602 | 30 | 282 | 6.4 | 19.3 | 0.00 | 0.20 | 0.00 | 64 | 1018.2 |
| 20260905173100 | 30 | 254 | 4.8 | 12.9 | 0.00 | 0.20 | 0.00 | 67 | 1018.1 |
| 20260905171601 | 29 | 160 | 4.8 | 16.1 | 0.00 | 0.20 | 0.00 | 68 | 1018.3 |
| 20260905170107 | 28 | 333 | 3.2 | 12.9 | 0.00 | 0.20 | 0.00 | 69 | 1018.6 |
| 20260905164603 | 27 | 315 | 3.2 | 11.3 | 0.00 | 0.20 | 0.00 | 72 | 1018.9 |
| 20260905163102 | 27 | 0 | 3.2 | 6.4 | 0.00 | 0.20 | 0.00 | 77 | 1019.0 |
| 20260905161601 | 26 | 172 | 0.0 | 3.2 | 0.00 | 0.20 | 0.00 | 81 | 1019.3 |
| 20260905160133 | 25 | 0 | 0.0 | 4.8 | 0.00 | 0.20 | 0.00 | 83 | 1019.4 |
| 20260905154606 | 25 | 86 | 0.0 | 16.1 | 0.00 | 0.20 | 0.00 | 81 | 1019.3 |
| 20260905153059 | 26 | 23 | 3.2 | 8.0 | 0.00 | 0.18 | 0.00 | 75 | 1019.9 |
| 20260905151609 | 26 | 0 | 1.6 | 14.5 | 0.00 | 0.18 | 0.00 | 74 | 1019.0 |
| 20260905150101 | 25 | 190 | 4.8 | 14.5 | 0.00 | 0.18 | 0.00 | 76 | 1018.7 |
| 20260905144602 | 25 | 191 | 4.8 | 14.5 | 0.00 | 0.18 | 0.00 | 77 | 1018.5 |
| 20260905143104 | 24 | 137 | 3.2 | 12.9 | 0.00 | 0.18 | 0.00 | 78 | 1018.6 |
| 20260905141559 | 23 | 188 | 6.4 | 17.7 | 0.00 | 0.18 | 0.00 | 79 | 1018.6 |
| 20260905140107 | 23 | 132 | 6.4 | 16.1 | 0.00 | 0.18 | 0.00 | 81 | 1018.4 |
| 20260905134617 | 22 | 179 | 4.8 | 14.5 | 0.00 | 0.18 | 0.00 | 82 | 1018.6 |
| 20260905133102 | 22 | 181 | 6.4 | 16.1 | 0.00 | 0.18 | 0.00 | 84 | 1018.6 |
| 20260905131606 | 22 | 179 | 4.8 | 19.3 | 0.00 | 0.18 | 0.00 | 86 | 1018.9 |
| 20260905130059 | 21 | 163 | 4.8 | 9.7 | 0.00 | 0.18 | 0.00 | 88 | 1019.1 |
| 20260905124557 | 21 | 119 | 1.6 | 12.9 | 0.00 | 0.18 | 0.00 | 89 | 1019.6 |
| 20260905123105 | 20 | 134 | 3.2 | 11.3 | 0.00 | 0.18 | 0.00 | 89 | 1019.5 |
| 20260905121601 | 20 | 116 | 3.2 | 11.3 | 0.00 | 0.18 | 0.00 | 89 | 1019.3 |
| 20260905120117 | 20 | 119 | 3.2 | 12.9 | 0.00 | 0.18 | 0.00 | 88 | 1019.0 |
| 20260905114558 | 20 | 111 | 3.2 | 9.7 | 0.00 | 0.18 | 0.00 | 88 | 1019.0 |
| 20260905113104 | 20 | 146 | 3.2 | 16.1 | 0.00 | 0.18 | 0.00 | 88 | 1019.1 |
| 20260905111613 | 20 | 126 | 1.6 | 17.7 | 0.00 | 0.18 | 0.00 | 87 | 1019.0 |
| 20260905110100 | 21 | 125 | 6.4 | 20.9 | 0.00 | 0.18 | 0.00 | 86 | 1019.0 |
| 20260905104603 | 21 | 105 | 6.4 | 20.9 | 0.00 | 0.18 | 0.00 | 86 | 1019.1 |
| 20260905103059 | 21 | 71 | 8.0 | 17.7 | 0.00 | 0.18 | 0.00 | 85 | 1019.5 |
| 20260905101607 | 21 | 98 | 6.4 | 17.7 | 0.00 | 0.18 | 0.00 | 85 | 1019.7 |
| 20260905094600 | 21 | 139 | 8.0 | 20.9 | 0.00 | 0.18 | 0.00 | 82 | 1019.7 |
| 20260905093059 | 22 | 114 | 3.2 | 16.1 | 0.00 | 0.18 | 0.00 | 81 | 1019.6 |
| 20260905091619 | 22 | 307 | 4.8 | 20.9 | 0.00 | 0.18 | 0.00 | 81 | 1019.4 |
| 20260905090120 | 23 | 19 | 1.6 | 11.3 | 0.00 | 0.18 | 0.00 | 90 | 1019.0 |
| 20260905084608 | 23 | 0 | 0.0 | 0.0 | 0.00 | 0.18 | 0.00 | 90 | 1018.3 |
| 20260905083100 | 23 | 0 | 0.0 | 0.0 | 0.00 | 0.18 | 0.00 | 89 | 1017.9 |
| 20260905081555 | 23 | 0 | 0.0 | 3.2 | 0.00 | 0.18 | 0.00 | 89 | 1017.9 |
| 20260905080106 | 24 | 0 | 0.0 | 0.0 | 0.00 | 0.18 | 0.00 | 88 | 1017.7 |
| 20260905074601 | 24 | 0 | 0.0 | 1.6 | 0.00 | 0.18 | 0.00 | 88 | 1017.8 |
| 20260905073103 | 24 | 0 | 0.0 | 4.8 | 0.00 | 0.18 | 0.00 | 88 | 1017.7 |
| 20260905071603 | 24 | 180 | 0.0 | 4.8 | 0.00 | 0.18 | 0.00 | 88 | 1017.2 |
| 20260905070119 | 24 | 0 | 1.6 | 8.0 | 0.00 | 0.18 | 0.00 | 87 | 1016.8 |